POW6TE LATI-EDDE

Flight info

Callsign POW6TE
Flight time 1h 50m
Altitude 34000
Route INLOT L604 PETOV/N0353F120 L604 GOLVA/N0454F340 DCT LALIN DCT MOOCE DCT EKSOS/N0418F240 L604 ANELA M726 NARUS DCT ERF
Aircraft A321/M-SDE3FGHIRWY/LB1

Departure

Time 2026-04-27 10:56
Airport Tirana International Airport Mother Teresa (LATI)

Arrival

Time 2026-04-27 12:46
Airport Erfurt-Weimar Airport (EDDE)
Time Latitude Longitude Altitude Speed Heading
2026-04-27 10:37 41.42107 19.71500 116 ft 0 kts 265°
2026-04-27 10:46 41.42108 19.71508 120 ft 2 kts 263°
2026-04-27 10:46 41.42114 19.71536 129 ft 4 kts 221°
2026-04-27 10:46 41.42136 19.71550 107 ft 4 kts 182°
2026-04-27 10:47 41.42147 19.71550 110 ft 1 kts 177°
2026-04-27 10:47 41.42148 19.71550 110 ft 0 kts 177°
2026-04-27 10:48 41.42139 19.71551 108 ft 5 kts 177°
2026-04-27 10:49 41.42073 19.71560 118 ft 14 kts 171°
2026-04-27 10:49 41.41969 19.71579 116 ft 14 kts 174°
2026-04-27 10:49 41.41876 19.71590 119 ft 12 kts 174°
2026-04-27 10:49 41.41776 19.71603 120 ft 20 kts 174°
2026-04-27 10:50 41.41626 19.71624 118 ft 21 kts 174°
2026-04-27 10:50 41.41483 19.71643 120 ft 21 kts 174°
2026-04-27 10:50 41.41301 19.71665 122 ft 31 kts 175°
2026-04-27 10:50 41.41069 19.71698 124 ft 33 kts 172°
2026-04-27 10:51 41.40849 19.71742 125 ft 31 kts 170°
2026-04-27 10:51 41.40646 19.71776 126 ft 28 kts 174°
2026-04-27 10:51 41.40477 19.71797 129 ft 23 kts 174°
2026-04-27 10:51 41.40340 19.71872 128 ft 21 kts 144°
2026-04-27 10:52 41.40244 19.71995 129 ft 18 kts 108°
2026-04-27 10:52 41.40244 19.72079 130 ft 0 kts 84°
2026-04-27 10:54 41.40244 19.72081 126 ft 2 kts 84°
2026-04-27 10:54 41.40248 19.72138 128 ft 8 kts 85°
2026-04-27 10:54 41.40267 19.72204 126 ft 7 kts 38°
2026-04-27 10:55 41.40349 19.72208 124 ft 22 kts 355°
2026-04-27 10:55 41.40737 19.72157 128 ft 89 kts 354°
2026-04-27 10:55 41.41545 19.72049 126 ft 142 kts 354°
2026-04-27 10:55 41.42654 19.71899 330 ft 165 kts 354°
2026-04-27 10:56 41.43773 19.71760 1039 ft 161 kts 355°
2026-04-27 10:56 41.44911 19.71649 1566 ft 171 kts 355°
2026-04-27 10:56 41.46173 19.71524 1880 ft 192 kts 355°
2026-04-27 10:56 41.47561 19.71381 2027 ft 209 kts 355°
2026-04-27 10:57 41.49079 19.71226 2147 ft 229 kts 356°
2026-04-27 10:57 41.50753 19.71050 2303 ft 253 kts 355°
2026-04-27 10:57 41.52544 19.70860 2805 ft 262 kts 355°
2026-04-27 10:57 41.54370 19.70662 3457 ft 265 kts 355°
2026-04-27 10:58 41.56217 19.70460 4131 ft 267 kts 355°
2026-04-27 10:58 41.58079 19.70258 4816 ft 270 kts 355°
2026-04-27 10:58 41.59939 19.69890 5467 ft 271 kts 343°
2026-04-27 10:58 41.61708 19.68993 6150 ft 272 kts 334°
2026-04-27 10:59 41.63398 19.67858 6850 ft 273 kts 331°
2026-04-27 10:59 41.65080 19.66650 7444 ft 276 kts 331°
2026-04-27 10:59 41.66785 19.65436 8053 ft 279 kts 332°
2026-04-27 11:00 41.70258 19.63077 9250 ft 285 kts 333°
2026-04-27 11:00 41.72045 19.61909 9844 ft 287 kts 333°
2026-04-27 11:00 41.73861 19.60740 10296 ft 296 kts 334°
2026-04-27 11:00 41.75777 19.59514 10417 ft 315 kts 334°
2026-04-27 11:01 41.77809 19.58221 10543 ft 332 kts 334°
2026-04-27 11:01 41.79946 19.56858 10664 ft 348 kts 334°
2026-04-27 11:01 41.82178 19.55431 10786 ft 363 kts 334°
2026-04-27 11:01 41.84503 19.53944 10918 ft 377 kts 334°
2026-04-27 11:02 41.86893 19.52413 11291 ft 382 kts 334°
2026-04-27 11:02 41.89293 19.50865 11721 ft 385 kts 334°
2026-04-27 11:02 41.91708 19.49296 12191 ft 387 kts 334°
2026-04-27 11:02 41.94140 19.47712 12615 ft 390 kts 334°
2026-04-27 11:03 41.96590 19.46111 13080 ft 391 kts 334°
2026-04-27 11:03 41.99049 19.44501 13463 ft 395 kts 334°
2026-04-27 11:03 42.01528 19.42880 13842 ft 397 kts 334°
2026-04-27 11:03 42.04019 19.41249 14199 ft 400 kts 334°
2026-04-27 11:04 42.06522 19.39610 14532 ft 401 kts 334°
2026-04-27 11:04 42.09036 19.37962 14882 ft 403 kts 334°
2026-04-27 11:04 42.11563 19.36304 15188 ft 405 kts 334°
2026-04-27 11:04 42.14110 19.34635 15497 ft 407 kts 334°
2026-04-27 11:05 42.16659 19.32963 15824 ft 409 kts 334°
2026-04-27 11:05 42.19222 19.31276 16172 ft 410 kts 334°
2026-04-27 11:05 42.21793 19.29582 16497 ft 412 kts 334°
2026-04-27 11:05 42.24369 19.27849 16835 ft 414 kts 332°
2026-04-27 11:06 42.26905 19.26007 17163 ft 416 kts 331°
2026-04-27 11:06 42.29422 19.24071 17500 ft 418 kts 330°
2026-04-27 11:06 42.31940 19.22078 17821 ft 421 kts 329°
2026-04-27 11:06 42.34471 19.20063 18115 ft 423 kts 329°
2026-04-27 11:07 42.37019 19.18049 18478 ft 425 kts 330°
2026-04-27 11:07 42.39581 19.16044 18767 ft 427 kts 330°
2026-04-27 11:07 42.42157 19.14047 19122 ft 428 kts 329°
2026-04-27 11:07 42.44748 19.12055 19440 ft 429 kts 330°
2026-04-27 11:08 42.47353 19.10051 19718 ft 432 kts 329°
2026-04-27 11:08 42.49968 19.08038 20020 ft 433 kts 329°
2026-04-27 11:08 42.52593 19.06010 20316 ft 435 kts 329°
2026-04-27 11:08 42.55227 19.03962 20624 ft 437 kts 329°
2026-04-27 11:09 42.57866 19.01903 20933 ft 438 kts 329°
2026-04-27 11:09 42.60515 18.99837 21236 ft 440 kts 329°
2026-04-27 11:09 42.63174 18.97766 21526 ft 442 kts 329°
2026-04-27 11:09 42.65843 18.95691 21816 ft 443 kts 329°
2026-04-27 11:10 42.68519 18.93611 22063 ft 444 kts 329°
2026-04-27 11:10 42.71207 18.91518 22355 ft 446 kts 329°
2026-04-27 11:10 42.73898 18.89417 22662 ft 447 kts 329°
2026-04-27 11:10 42.76596 18.87304 22956 ft 448 kts 329°
2026-04-27 11:11 42.79304 18.85177 23238 ft 450 kts 328°
2026-04-27 11:11 42.82019 18.83046 23505 ft 451 kts 329°
2026-04-27 11:11 42.84749 18.80905 23767 ft 453 kts 329°
2026-04-27 11:11 42.87484 18.78762 24003 ft 454 kts 328°
2026-04-27 11:12 42.90222 18.76611 24242 ft 454 kts 328°
2026-04-27 11:12 42.92959 18.74459 24481 ft 454 kts 328°
2026-04-27 11:12 42.95703 18.72297 24695 ft 455 kts 328°
2026-04-27 11:12 42.98446 18.70133 24894 ft 456 kts 328°
2026-04-27 11:13 43.01195 18.67962 25078 ft 457 kts 328°
2026-04-27 11:13 43.03946 18.65788 25275 ft 457 kts 328°
2026-04-27 11:13 43.06697 18.63609 25506 ft 457 kts 328°
2026-04-27 11:13 43.09441 18.61438 25763 ft 456 kts 328°
2026-04-27 11:14 43.11259 18.60000 25918 ft 455 kts 328°
2026-04-27 11:14 43.13998 18.57832 26153 ft 454 kts 328°
2026-04-27 11:14 43.17610 18.54959 26466 ft 453 kts 328°
2026-04-27 11:14 43.19447 18.53493 26632 ft 453 kts 328°
2026-04-27 11:15 43.23047 18.50618 26958 ft 451 kts 328°
2026-04-27 11:15 43.25856 18.48677 27188 ft 452 kts 333°
2026-04-27 11:15 43.27796 18.47482 27351 ft 452 kts 333°
2026-04-27 11:15 43.31584 18.45142 27652 ft 451 kts 333°
2026-04-27 11:16 43.34440 18.43371 27899 ft 450 kts 333°
2026-04-27 11:16 43.36369 18.42171 28070 ft 449 kts 333°
2026-04-27 11:16 43.39210 18.40403 28342 ft 448 kts 333°
2026-04-27 11:16 43.42048 18.38636 28601 ft 447 kts 333°
2026-04-27 11:17 43.44872 18.36875 28835 ft 446 kts 333°
2026-04-27 11:17 43.47700 18.35107 29072 ft 445 kts 333°
2026-04-27 11:17 43.50520 18.33344 29315 ft 445 kts 333°
2026-04-27 11:17 43.53296 18.31608 29532 ft 444 kts 333°
2026-04-27 11:18 43.56149 18.29825 29757 ft 443 kts 332°
2026-04-27 11:18 43.58951 18.28071 29960 ft 443 kts 332°
2026-04-27 11:18 43.61716 18.26336 30175 ft 442 kts 332°
2026-04-27 11:18 43.64514 18.24578 30393 ft 441 kts 332°
2026-04-27 11:19 43.67303 18.22822 30579 ft 441 kts 332°
2026-04-27 11:19 43.70088 18.21066 30765 ft 440 kts 332°
2026-04-27 11:19 43.72871 18.19312 30949 ft 439 kts 332°
2026-04-27 11:19 43.75651 18.17556 31137 ft 439 kts 332°
2026-04-27 11:20 43.78426 18.15799 31325 ft 439 kts 332°
2026-04-27 11:20 43.81198 18.14043 31504 ft 438 kts 332°
2026-04-27 11:20 43.83973 18.12286 31701 ft 438 kts 332°
2026-04-27 11:20 43.86738 18.10540 31892 ft 437 kts 332°
2026-04-27 11:21 43.89489 18.08755 32070 ft 436 kts 331°
2026-04-27 11:21 43.92219 18.06915 32255 ft 436 kts 330°
2026-04-27 11:21 43.94928 18.05042 32456 ft 435 kts 330°
2026-04-27 11:21 43.97630 18.03157 32648 ft 434 kts 330°
2026-04-27 11:22 44.00329 18.01277 32825 ft 434 kts 330°
2026-04-27 11:22 44.03035 17.99405 33001 ft 433 kts 330°
2026-04-27 11:22 44.05737 17.97551 33189 ft 433 kts 331°
2026-04-27 11:22 44.08437 17.95701 33378 ft 432 kts 331°
2026-04-27 11:23 44.11131 17.93851 33551 ft 432 kts 331°
2026-04-27 11:23 44.13823 17.92001 33718 ft 431 kts 331°
2026-04-27 11:23 44.16512 17.90152 33910 ft 431 kts 331°
2026-04-27 11:23 44.19197 17.88305 34097 ft 430 kts 331°
2026-04-27 11:24 44.24577 17.84609 34179 ft 432 kts 331°
2026-04-27 11:24 44.29955 17.80893 34186 ft 432 kts 331°
2026-04-27 11:25 44.35339 17.77161 34185 ft 431 kts 331°
2026-04-27 11:25 44.40447 17.72843 34183 ft 429 kts 324°
2026-04-27 11:26 44.45432 17.68233 34191 ft 429 kts 324°
2026-04-27 11:26 44.50415 17.63614 34194 ft 430 kts 324°
2026-04-27 11:27 44.55402 17.58990 34195 ft 430 kts 324°
2026-04-27 11:27 44.60381 17.54362 34205 ft 430 kts 325°
2026-04-27 11:28 44.65364 17.49714 34221 ft 429 kts 325°
2026-04-27 11:28 44.70336 17.45062 34229 ft 429 kts 325°
2026-04-27 11:29 44.75305 17.40420 34234 ft 429 kts 325°
2026-04-27 11:29 44.80274 17.35772 34236 ft 429 kts 325°
2026-04-27 11:30 44.85231 17.31108 34243 ft 428 kts 325°
2026-04-27 11:30 44.90186 17.26435 34240 ft 428 kts 325°
2026-04-27 11:31 44.95131 17.21765 34240 ft 428 kts 325°
2026-04-27 11:31 45.00076 17.17094 34229 ft 428 kts 325°
2026-04-27 11:32 45.05013 17.12410 34227 ft 427 kts 325°
2026-04-27 11:32 45.09947 17.07719 34229 ft 427 kts 326°
2026-04-27 11:33 45.14838 17.03062 34236 ft 426 kts 326°
2026-04-27 11:33 45.19755 16.98368 34235 ft 426 kts 326°
2026-04-27 11:34 45.24660 16.93673 34231 ft 425 kts 326°
2026-04-27 11:34 45.29562 16.88980 34232 ft 425 kts 326°
2026-04-27 11:35 45.34463 16.84278 34234 ft 424 kts 326°
2026-04-27 11:35 45.39344 16.79580 34237 ft 423 kts 326°
2026-04-27 11:36 45.44214 16.74884 34239 ft 423 kts 326°
2026-04-27 11:36 45.49078 16.70186 34239 ft 422 kts 326°
2026-04-27 11:37 45.53934 16.65483 34238 ft 422 kts 326°
2026-04-27 11:37 45.58789 16.60770 34237 ft 422 kts 326°
2026-04-27 11:38 45.63634 16.56058 34231 ft 421 kts 326°
2026-04-27 11:38 45.68476 16.51341 34233 ft 421 kts 326°
2026-04-27 11:39 45.73314 16.46621 34231 ft 421 kts 326°
2026-04-27 11:39 45.78147 16.41890 34243 ft 421 kts 326°
2026-04-27 11:40 45.82973 16.37156 34241 ft 420 kts 326°
2026-04-27 11:40 45.87792 16.32420 34231 ft 420 kts 327°
2026-04-27 11:41 45.92788 16.28110 34229 ft 419 kts 332°
2026-04-27 11:41 45.97892 16.24064 34230 ft 419 kts 332°
2026-04-27 11:42 46.02991 16.20018 34241 ft 419 kts 332°
2026-04-27 11:42 46.08092 16.15958 34240 ft 418 kts 332°
2026-04-27 11:43 46.13179 16.11901 34236 ft 418 kts 332°
2026-04-27 11:43 46.18264 16.07827 34217 ft 418 kts 332°
2026-04-27 11:44 46.23346 16.03744 34222 ft 418 kts 331°
2026-04-27 11:44 46.28429 15.99661 34232 ft 418 kts 331°
2026-04-27 11:45 46.32687 15.96242 34228 ft 418 kts 331°
2026-04-27 11:45 46.38585 15.91495 34228 ft 417 kts 331°
2026-04-27 11:46 46.43658 15.87403 34233 ft 417 kts 331°
2026-04-27 11:46 46.48727 15.83296 34231 ft 417 kts 331°
2026-04-27 11:47 46.53797 15.79184 34237 ft 417 kts 331°
2026-04-27 11:47 46.58856 15.75069 34234 ft 417 kts 331°
2026-04-27 11:48 46.63906 15.70945 34234 ft 416 kts 331°
2026-04-27 11:48 46.68962 15.66811 34229 ft 416 kts 331°
2026-04-27 11:49 46.73789 15.62170 34240 ft 417 kts 325°
2026-04-27 11:49 46.78483 15.57208 34198 ft 417 kts 324°
2026-04-27 11:50 46.83183 15.52249 34200 ft 417 kts 324°
2026-04-27 11:50 46.87879 15.47284 34198 ft 417 kts 324°
2026-04-27 11:51 46.92571 15.42303 34195 ft 417 kts 324°
2026-04-27 11:52 46.99563 15.34839 34217 ft 416 kts 324°
2026-04-27 11:52 47.04243 15.29846 34205 ft 416 kts 324°
2026-04-27 11:53 47.08914 15.24851 34207 ft 415 kts 324°
2026-04-27 11:53 47.13576 15.19851 34203 ft 415 kts 324°
2026-04-27 11:54 47.18235 15.14833 34185 ft 415 kts 324°
2026-04-27 11:54 47.22892 15.09812 34203 ft 415 kts 324°
2026-04-27 11:55 47.27547 15.04783 34189 ft 415 kts 323°
2026-04-27 11:55 47.32194 14.99756 34187 ft 414 kts 323°
2026-04-27 11:56 47.36832 14.94720 34184 ft 414 kts 323°
2026-04-27 11:56 47.41469 14.89677 34178 ft 413 kts 323°
2026-04-27 11:57 47.46100 14.84634 34183 ft 413 kts 323°
2026-04-27 11:57 47.50722 14.79590 34196 ft 413 kts 323°
2026-04-27 11:58 47.55337 14.74542 34183 ft 412 kts 323°
2026-04-27 11:58 47.59948 14.69479 34182 ft 413 kts 323°
2026-04-27 11:59 47.64558 14.64392 34192 ft 413 kts 323°
2026-04-27 11:59 47.69175 14.59303 34196 ft 414 kts 323°
2026-04-27 12:00 47.73794 14.54203 34222 ft 413 kts 323°
2026-04-27 12:00 47.77625 14.49964 34225 ft 413 kts 323°
2026-04-27 12:01 47.82225 14.44864 34205 ft 412 kts 322°
2026-04-27 12:01 47.86824 14.39740 34202 ft 413 kts 322°
2026-04-27 12:02 47.91427 14.34622 34203 ft 413 kts 323°
2026-04-27 12:02 47.96034 14.29495 34208 ft 413 kts 322°
2026-04-27 12:03 48.00637 14.24340 34209 ft 414 kts 322°
2026-04-27 12:03 48.05233 14.19167 34211 ft 414 kts 322°
2026-04-27 12:04 48.09840 14.13983 34199 ft 415 kts 322°
2026-04-27 12:04 48.14452 14.08787 34199 ft 415 kts 322°
2026-04-27 12:05 48.19070 14.03575 34202 ft 416 kts 322°
2026-04-27 12:05 48.23686 13.98350 34223 ft 416 kts 322°
2026-04-27 12:06 48.28270 13.93158 34221 ft 415 kts 322°
2026-04-27 12:06 48.32900 13.87887 34221 ft 415 kts 322°
2026-04-27 12:07 48.37467 13.82665 34203 ft 415 kts 322°
2026-04-27 12:07 48.42070 13.77405 34205 ft 416 kts 322°
2026-04-27 12:08 48.46676 13.72135 34205 ft 416 kts 322°
2026-04-27 12:08 48.51279 13.66846 34221 ft 416 kts 322°
2026-04-27 12:09 48.55885 13.61553 34222 ft 416 kts 322°
2026-04-27 12:09 48.60480 13.56253 34221 ft 416 kts 322°
2026-04-27 12:10 48.65066 13.50949 34206 ft 416 kts 322°
2026-04-27 12:10 48.69656 13.45621 34214 ft 416 kts 322°
2026-04-27 12:11 48.74249 13.40288 34229 ft 416 kts 322°
2026-04-27 12:11 48.78837 13.34939 34232 ft 416 kts 321°
2026-04-27 12:12 48.83415 13.29588 34227 ft 415 kts 321°
2026-04-27 12:12 48.87815 13.23940 34228 ft 414 kts 311°
2026-04-27 12:13 48.91109 13.16783 34214 ft 414 kts 303°
2026-04-27 12:13 48.94181 13.09384 34212 ft 414 kts 303°
2026-04-27 12:14 48.97264 13.01986 34204 ft 414 kts 303°
2026-04-27 12:14 49.00341 12.94569 34203 ft 414 kts 303°
2026-04-27 12:15 49.03401 12.87149 34223 ft 414 kts 302°
2026-04-27 12:15 49.06453 12.79717 34224 ft 413 kts 302°
2026-04-27 12:16 49.09498 12.72288 34224 ft 413 kts 302°
2026-04-27 12:16 49.12543 12.64853 34222 ft 413 kts 302°
2026-04-27 12:17 49.15584 12.57412 34228 ft 413 kts 302°
2026-04-27 12:17 49.18617 12.49960 34227 ft 413 kts 302°
2026-04-27 12:18 49.21643 12.42494 34211 ft 413 kts 302°
2026-04-27 12:18 49.24663 12.35029 34216 ft 413 kts 302°
2026-04-27 12:19 49.27682 12.27551 34222 ft 413 kts 302°
2026-04-27 12:19 49.30702 12.20061 34224 ft 413 kts 302°
2026-04-27 12:20 49.33709 12.12564 34241 ft 413 kts 302°
2026-04-27 12:20 49.36707 12.05055 34226 ft 412 kts 301°
2026-04-27 12:21 49.39699 11.97566 34228 ft 412 kts 302°
2026-04-27 12:21 49.42688 11.90069 34226 ft 411 kts 301°
2026-04-27 12:22 49.45645 11.82611 34223 ft 411 kts 301°
2026-04-27 12:22 49.48610 11.75108 34219 ft 411 kts 301°
2026-04-27 12:23 49.51570 11.67604 34204 ft 410 kts 301°
2026-04-27 12:23 49.54528 11.60088 34204 ft 410 kts 301°
2026-04-27 12:24 49.57779 11.52884 34204 ft 411 kts 312°
2026-04-27 12:24 49.61769 11.46562 34205 ft 411 kts 313°
2026-04-27 12:25 49.65751 11.40230 34229 ft 411 kts 312°
2026-04-27 12:25 49.69724 11.33884 34228 ft 411 kts 312°
2026-04-27 12:26 49.73789 11.27667 34216 ft 413 kts 320°
2026-04-27 12:26 49.78896 11.23530 34219 ft 421 kts 340°
2026-04-27 12:27 49.84774 11.22511 34210 ft 431 kts 355°
2026-04-27 12:27 49.90775 11.22561 34229 ft 432 kts 355°
2026-04-27 12:28 49.96784 11.22589 34222 ft 432 kts 355°
2026-04-27 12:28 50.02791 11.22615 34216 ft 432 kts 355°
2026-04-27 12:29 50.08804 11.22640 33908 ft 433 kts 355°
2026-04-27 12:29 50.11842 11.22655 32881 ft 439 kts 355°
2026-04-27 12:29 50.14900 11.22678 32034 ft 439 kts 355°
2026-04-27 12:29 50.17961 11.22697 31191 ft 440 kts 355°
2026-04-27 12:30 50.21026 11.22714 30351 ft 442 kts 356°
2026-04-27 12:30 50.24111 11.22734 29302 ft 445 kts 356°
2026-04-27 12:30 50.27208 11.22755 28336 ft 446 kts 356°
2026-04-27 12:30 50.30310 11.22777 27426 ft 446 kts 356°
2026-04-27 12:31 50.33423 11.22798 26397 ft 449 kts 356°
2026-04-27 12:31 50.36566 11.22727 25298 ft 452 kts 352°
2026-04-27 12:31 50.39696 11.22260 24335 ft 453 kts 351°
2026-04-27 12:31 50.42839 11.21778 23347 ft 454 kts 351°
2026-04-27 12:32 50.45955 11.21309 22611 ft 447 kts 351°
2026-04-27 12:32 50.49034 11.20849 21903 ft 441 kts 351°
2026-04-27 12:32 50.52065 11.20397 21200 ft 435 kts 351°
2026-04-27 12:32 50.55063 11.19951 20508 ft 430 kts 351°
2026-04-27 12:33 50.58018 11.19510 19839 ft 424 kts 352°
2026-04-27 12:33 50.60949 11.19069 19185 ft 420 kts 352°
2026-04-27 12:33 50.63838 11.18631 18545 ft 415 kts 352°
2026-04-27 12:33 50.66696 11.18196 17863 ft 409 kts 352°
2026-04-27 12:34 50.69501 11.17775 17245 ft 402 kts 352°
2026-04-27 12:34 50.72274 11.17372 16637 ft 398 kts 352°
2026-04-27 12:34 50.75019 11.16983 16053 ft 394 kts 352°
2026-04-27 12:34 50.77730 11.16607 15479 ft 390 kts 352°
2026-04-27 12:35 50.80420 11.16235 14937 ft 386 kts 353°
2026-04-27 12:35 50.83077 11.15860 14384 ft 381 kts 352°
2026-04-27 12:35 50.85701 11.15483 13842 ft 377 kts 352°
2026-04-27 12:35 50.88301 11.15106 13300 ft 374 kts 353°
2026-04-27 12:36 50.90886 11.14732 12784 ft 371 kts 353°
2026-04-27 12:36 50.93450 11.14362 12265 ft 369 kts 353°
2026-04-27 12:36 50.95993 11.13999 11749 ft 366 kts 353°
2026-04-27 12:36 50.98488 11.13642 11491 ft 352 kts 353°
2026-04-27 12:37 51.00814 11.12857 11359 ft 333 kts 338°
2026-04-27 12:37 51.02786 11.11132 11240 ft 317 kts 322°
2026-04-27 12:37 51.04304 11.08731 11103 ft 302 kts 307°
2026-04-27 12:37 51.05320 11.05905 10996 ft 289 kts 292°
2026-04-27 12:38 51.05825 11.02865 10768 ft 282 kts 278°
2026-04-27 12:38 51.06052 10.99784 10707 ft 281 kts 278°
2026-04-27 12:38 51.06292 10.96705 10627 ft 281 kts 279°
2026-04-27 12:38 51.06538 10.93629 10500 ft 281 kts 279°
2026-04-27 12:39 51.06785 10.90550 10389 ft 280 kts 279°
2026-04-27 12:39 51.07029 10.87476 10269 ft 280 kts 279°
2026-04-27 12:39 51.07274 10.84387 9852 ft 284 kts 279°
2026-04-27 12:39 51.07522 10.81276 9416 ft 283 kts 279°
2026-04-27 12:40 51.07765 10.78209 8975 ft 282 kts 278°
2026-04-27 12:40 51.08010 10.75109 8479 ft 284 kts 278°
2026-04-27 12:40 51.08250 10.72025 8140 ft 280 kts 278°
2026-04-27 12:40 51.08488 10.68963 7706 ft 278 kts 278°
2026-04-27 12:41 51.08654 10.65920 6988 ft 275 kts 265°
2026-04-27 12:41 51.08070 10.63058 6287 ft 278 kts 236°
2026-04-27 12:41 51.06644 10.60978 5841 ft 277 kts 206°
2026-04-27 12:41 51.04802 10.60235 5354 ft 277 kts 182°
2026-04-27 12:42 51.02890 10.60404 4995 ft 272 kts 166°
2026-04-27 12:42 51.01255 10.61690 4814 ft 259 kts 134°
2026-04-27 12:42 51.00427 10.64079 4697 ft 243 kts 101°
2026-04-27 12:42 51.00209 10.66720 4448 ft 240 kts 95°
2026-04-27 12:43 51.00048 10.69345 4160 ft 237 kts 96°
2026-04-27 12:43 50.99860 10.71903 3848 ft 231 kts 96°
2026-04-27 12:43 50.99667 10.74383 3535 ft 227 kts 96°
2026-04-27 12:43 50.99537 10.76053 3331 ft 225 kts 96°
2026-04-27 12:44 50.99346 10.78496 3008 ft 218 kts 96°
2026-04-27 12:44 50.99164 10.80812 2740 ft 202 kts 95°
2026-04-27 12:44 50.98998 10.82933 2467 ft 187 kts 96°
2026-04-27 12:44 50.98845 10.84876 2226 ft 169 kts 96°
2026-04-27 12:45 50.98704 10.86655 1983 ft 156 kts 94°
2026-04-27 12:45 50.98572 10.88337 1771 ft 152 kts 95°
2026-04-27 12:45 50.98442 10.89989 1563 ft 151 kts 94°
2026-04-27 12:45 50.98317 10.91634 1391 ft 150 kts 94°
2026-04-27 12:46 50.98182 10.93273 1155 ft 149 kts 94°
2026-04-27 12:46 50.98055 10.94884 1040 ft 141 kts 96°
2026-04-27 12:46 50.97956 10.96132 1024 ft 73 kts 97°
2026-04-27 12:46 50.97921 10.96566 1026 ft 27 kts 97°
2026-04-27 12:47 50.97898 10.96857 1029 ft 26 kts 97°
2026-04-27 12:47 50.97872 10.97050 1024 ft 14 kts 132°
2026-04-27 12:47 50.97781 10.97063 1022 ft 13 kts 187°
2026-04-27 12:47 50.97695 10.97042 1021 ft 12 kts 203°
2026-04-27 12:48 50.97678 10.96911 1025 ft 18 kts 278°
2026-04-27 12:48 50.97700 10.96656 1026 ft 27 kts 278°
2026-04-27 12:48 50.97722 10.96377 1027 ft 20 kts 276°
2026-04-27 12:48 50.97705 10.96264 1028 ft 9 kts 217°
2026-04-27 12:49 50.97648 10.96238 1026 ft 7 kts 208°
2026-04-27 12:49 50.97633 10.96178 1025 ft 5 kts 272°
2026-04-27 12:49 50.97631 10.96125 1026 ft 5 kts 246°
2026-04-27 12:49 50.97597 10.96096 1026 ft 5 kts 209°
2026-04-27 12:50 50.97586 10.96082 1026 ft 0 kts 220°
2026-04-27 12:50 50.97581 10.96076 1025 ft 0 kts 218°